Time,TemperatureF,DewpointF,PressureIn,WindDirection,WindDirectionDegrees,WindSpeedMPH,WindSpeedGustMPH,Humidity,HourlyPrecipIn,Conditions,Clouds,dailyrainin,SolarRadiationWatts/m^2,SoftwareType,DateUTC
2013-03-25 00:02:00,12.0,0.0,-100.00,WSW,239,4.0,7.0,59,0.00,,,0.01,0.000000,,2013-03-25 06:02:00,
2013-03-25 00:12:00,12.0,0.0,-100.00,WSW,239,4.0,7.0,59,0.00,,,0.01,0.000000,,2013-03-25 06:12:00,
2013-03-25 00:33:00,12.0,0.0,-100.00,West,262,4.0,8.0,58,0.00,,,0.01,0.000000,,2013-03-25 06:33:00,
2013-03-25 00:42:00,12.0,0.0,-100.00,West,262,4.0,8.0,58,0.00,,,0.01,0.000000,,2013-03-25 06:42:00,
2013-03-25 00:52:00,12.0,0.0,-100.00,West,262,4.0,8.0,58,0.00,,,0.01,0.000000,,2013-03-25 06:52:00,
2013-03-25 01:02:00,12.0,0.0,-100.00,West,262,4.0,8.0,58,0.00,,,0.01,0.000000,,2013-03-25 07:02:00,
2013-03-25 01:12:00,12.0,0.0,-100.00,West,262,4.0,8.0,58,0.00,,,0.01,0.000000,,2013-03-25 07:12:00,
2013-03-25 01:42:00,12.0,0.0,-100.00,West,265,5.0,8.0,59,0.00,,,0.01,0.000000,,2013-03-25 07:42:00,
2013-03-25 01:53:00,12.0,0.0,-100.00,West,265,5.0,8.0,59,0.00,,,0.01,0.000000,,2013-03-25 07:53:00,
2013-03-25 02:02:00,12.0,0.0,-100.00,West,265,5.0,8.0,59,0.00,,,0.01,0.000000,,2013-03-25 08:02:00,
2013-03-25 02:12:00,12.0,0.0,-100.00,West,265,5.0,8.0,59,0.00,,,0.01,0.000000,,2013-03-25 08:12:00,
2013-03-25 02:43:00,11.0,-1.0,-100.00,West,278,4.0,8.0,58,0.00,,,0.01,0.000000,,2013-03-25 08:43:00,
2013-03-25 02:52:00,11.0,-1.0,-100.00,West,278,4.0,8.0,58,0.00,,,0.01,0.000000,,2013-03-25 08:52:00,
2013-03-25 03:02:00,11.0,-1.0,-100.00,West,278,4.0,8.0,58,0.00,,,0.01,0.000000,,2013-03-25 09:02:00,
2013-03-25 03:12:00,11.0,-1.0,-100.00,West,278,4.0,8.0,58,0.00,,,0.01,0.000000,,2013-03-25 09:12:00,
2013-03-25 03:33:00,7.0,0.0,-100.00,WNW,296,2.0,5.0,71,0.00,,,0.01,0.000000,,2013-03-25 09:33:00,
2013-03-25 03:43:00,7.0,0.0,-100.00,WNW,296,2.0,5.0,71,0.00,,,0.01,0.000000,,2013-03-25 09:43:00,
2013-03-25 03:53:00,7.0,0.0,-100.00,WNW,296,2.0,5.0,71,0.00,,,0.01,0.000000,,2013-03-25 09:53:00,
2013-03-25 04:03:00,7.0,0.0,-100.00,WNW,296,2.0,5.0,71,0.00,,,0.01,0.000000,,2013-03-25 10:03:00,
2013-03-25 04:12:00,7.0,0.0,-100.00,WNW,296,2.0,5.0,71,0.00,,,0.01,0.000000,,2013-03-25 10:12:00,
2013-03-25 04:43:00,5.0,-2.0,-100.00,SE,128,3.0,4.0,73,0.00,,,0.01,0.000000,,2013-03-25 10:43:00,
2013-03-25 04:54:00,5.0,-2.0,-100.00,SE,128,3.0,4.0,73,0.00,,,0.01,0.000000,,2013-03-25 10:54:00,
2013-03-25 05:03:00,5.0,-2.0,-100.00,SE,128,3.0,4.0,73,0.00,,,0.01,0.000000,,2013-03-25 11:03:00,
2013-03-25 05:12:00,5.0,-2.0,-100.00,SE,128,3.0,4.0,73,0.00,,,0.01,0.000000,,2013-03-25 11:12:00,
2013-03-25 05:33:00,6.0,-1.0,-100.00,West,266,2.0,3.0,71,0.00,,,0.01,0.000000,,2013-03-25 11:33:00,
2013-03-25 05:42:00,6.0,-1.0,-100.00,West,266,2.0,3.0,71,0.00,,,0.01,0.000000,,2013-03-25 11:42:00,
2013-03-25 05:53:00,6.0,-1.0,-100.00,West,266,2.0,3.0,71,0.00,,,0.01,0.000000,,2013-03-25 11:53:00,
2013-03-25 06:02:00,6.0,-1.0,-100.00,West,266,2.0,3.0,71,0.00,,,0.01,0.000000,,2013-03-25 12:02:00,
2013-03-25 06:12:00,6.0,-1.0,-100.00,West,266,2.0,3.0,71,0.00,,,0.01,0.000000,,2013-03-25 12:12:00,
2013-03-25 06:13:00,6.0,-1.0,-100.00,West,281,2.0,3.0,72,0.00,,,0.01,0.000000,,2013-03-25 12:13:00,
2013-03-25 06:33:00,6.0,-1.0,-100.00,West,281,2.0,3.0,72,0.00,,,0.01,0.000000,,2013-03-25 12:33:00,
2013-03-25 06:43:00,6.0,-1.0,-100.00,West,281,2.0,3.0,72,0.00,,,0.01,0.000000,,2013-03-25 12:43:00,
2013-03-25 06:53:00,6.0,-1.0,-100.00,West,281,2.0,3.0,72,0.00,,,0.01,0.000000,,2013-03-25 12:53:00,
2013-03-25 07:02:00,6.0,-1.0,-100.00,West,281,2.0,3.0,72,0.00,,,0.01,0.000000,,2013-03-25 13:02:00,
2013-03-25 07:32:00,4.0,-4.0,-100.00,WNW,295,3.0,4.0,70,0.00,,,0.01,5.000000,,2013-03-25 13:32:00,
2013-03-25 07:43:00,4.0,-4.0,-100.00,WNW,295,3.0,4.0,70,0.00,,,0.01,5.000000,,2013-03-25 13:43:00,
2013-03-25 07:52:00,4.0,-4.0,-100.00,WNW,295,3.0,4.0,70,0.00,,,0.01,5.000000,,2013-03-25 13:52:00,
2013-03-25 08:03:00,4.0,-4.0,-100.00,WNW,295,3.0,4.0,70,0.00,,,0.01,5.000000,,2013-03-25 14:03:00,
2013-03-25 08:12:00,4.0,-4.0,-100.00,WNW,295,3.0,4.0,70,0.00,,,0.01,5.000000,,2013-03-25 14:12:00,
2013-03-25 08:33:00,16.0,3.0,-100.00,NE,56,1.0,2.0,56,0.00,,,0.01,105.000000,,2013-03-25 14:33:00,
2013-03-25 08:43:00,16.0,3.0,-100.00,NE,56,1.0,2.0,56,0.00,,,0.01,105.000000,,2013-03-25 14:43:00,
2013-03-25 08:53:00,16.0,3.0,-100.00,NE,56,1.0,2.0,56,0.00,,,0.01,105.000000,,2013-03-25 14:53:00,
2013-03-25 09:02:00,16.0,3.0,-100.00,NE,56,1.0,2.0,56,0.00,,,0.01,105.000000,,2013-03-25 15:02:00,
2013-03-25 09:12:00,16.0,3.0,-100.00,NE,56,1.0,2.0,56,0.00,,,0.01,105.000000,,2013-03-25 15:12:00,
2013-03-25 09:43:00,22.0,5.0,-100.00,East,100,2.0,4.0,47,0.00,,,0.01,331.000000,,2013-03-25 15:43:00,
2013-03-25 09:53:00,22.0,5.0,-100.00,East,100,2.0,4.0,47,0.00,,,0.01,331.000000,,2013-03-25 15:53:00,
2013-03-25 10:03:00,22.0,5.0,-100.00,East,100,2.0,4.0,47,0.00,,,0.01,331.000000,,2013-03-25 16:03:00,
2013-03-25 10:12:00,22.0,5.0,-100.00,East,100,2.0,4.0,47,0.00,,,0.01,331.000000,,2013-03-25 16:12:00,
2013-03-25 10:43:00,23.0,8.0,-100.00,SE,130,5.0,8.0,51,0.00,,,0.01,555.000000,,2013-03-25 16:43:00,
2013-03-25 10:53:00,23.0,8.0,-100.00,SE,130,5.0,8.0,51,0.00,,,0.01,555.000000,,2013-03-25 16:53:00,
2013-03-25 11:02:00,23.0,8.0,-100.00,SE,130,5.0,8.0,51,0.00,,,0.01,555.000000,,2013-03-25 17:02:00,
2013-03-25 11:12:00,23.0,8.0,-100.00,SE,130,5.0,8.0,51,0.00,,,0.01,555.000000,,2013-03-25 17:12:00,
2013-03-25 11:43:00,24.0,9.0,-100.00,ESE,119,8.0,11.0,53,0.00,,,0.01,732.000000,,2013-03-25 17:43:00,
2013-03-25 11:53:00,24.0,9.0,-100.00,ESE,119,8.0,11.0,53,0.00,,,0.01,732.000000,,2013-03-25 17:53:00,
2013-03-25 12:03:00,24.0,9.0,-100.00,ESE,119,8.0,11.0,53,0.00,,,0.01,732.000000,,2013-03-25 18:03:00,
2013-03-25 12:12:00,24.0,9.0,-100.00,ESE,119,8.0,11.0,53,0.00,,,0.01,732.000000,,2013-03-25 18:12:00,
2013-03-25 12:43:00,28.0,13.0,-100.00,ESE,112,8.0,12.0,52,0.00,,,0.01,901.000000,,2013-03-25 18:43:00,
2013-03-25 12:53:00,28.0,13.0,-100.00,ESE,112,8.0,12.0,52,0.00,,,0.01,901.000000,,2013-03-25 18:53:00,
2013-03-25 13:03:00,28.0,13.0,-100.00,ESE,112,8.0,12.0,52,0.00,,,0.01,901.000000,,2013-03-25 19:03:00,
2013-03-25 13:12:00,28.0,13.0,-100.00,ESE,112,8.0,12.0,52,0.00,,,0.01,901.000000,,2013-03-25 19:12:00,
2013-03-25 13:43:00,30.0,16.0,-100.00,East,82,8.0,14.0,55,0.00,,,0.01,982.000000,,2013-03-25 19:43:00,
2013-03-25 13:53:00,30.0,16.0,-100.00,East,82,8.0,14.0,55,0.00,,,0.01,982.000000,,2013-03-25 19:53:00,
2013-03-25 14:02:00,30.0,16.0,-100.00,East,82,8.0,14.0,55,0.00,,,0.01,982.000000,,2013-03-25 20:02:00,
2013-03-25 14:12:00,30.0,16.0,-100.00,East,82,8.0,14.0,55,0.00,,,0.01,982.000000,,2013-03-25 20:12:00,
2013-03-25 14:42:00,31.0,16.0,-100.00,East,79,6.0,13.0,54,0.00,,,0.00,989.000000,,2013-03-25 20:42:00,
2013-03-25 14:52:00,31.0,16.0,-100.00,East,79,6.0,13.0,54,0.00,,,0.00,989.000000,,2013-03-25 20:52:00,
2013-03-25 15:02:00,31.0,16.0,-100.00,East,79,6.0,13.0,54,0.00,,,0.00,989.000000,,2013-03-25 21:02:00,
2013-03-25 15:12:00,31.0,16.0,-100.00,East,79,6.0,13.0,54,0.00,,,0.00,989.000000,,2013-03-25 21:12:00,
2013-03-25 15:33:00,31.0,17.0,-100.00,ENE,67,7.0,12.0,55,0.00,,,0.00,921.000000,,2013-03-25 21:33:00,
2013-03-25 15:43:00,31.0,17.0,-100.00,ENE,67,7.0,12.0,55,0.00,,,0.00,921.000000,,2013-03-25 21:43:00,
2013-03-25 15:52:00,31.0,17.0,-100.00,ENE,67,7.0,12.0,55,0.00,,,0.00,921.000000,,2013-03-25 21:52:00,
2013-03-25 16:03:00,31.0,17.0,-100.00,ENE,67,7.0,12.0,55,0.00,,,0.00,921.000000,,2013-03-25 22:03:00,
2013-03-25 16:12:00,31.0,17.0,-100.00,ENE,67,7.0,12.0,55,0.00,,,0.00,921.000000,,2013-03-25 22:12:00,
2013-03-25 16:43:00,31.0,17.0,-100.00,East,90,6.0,14.0,55,0.00,,,0.00,785.000000,,2013-03-25 22:43:00,
2013-03-25 16:52:00,31.0,17.0,-100.00,East,90,6.0,14.0,55,0.00,,,0.00,785.000000,,2013-03-25 22:52:00,
2013-03-25 17:03:00,31.0,17.0,-100.00,East,90,6.0,14.0,55,0.00,,,0.00,785.000000,,2013-03-25 23:03:00,
2013-03-25 17:12:00,31.0,17.0,-100.00,East,90,6.0,14.0,55,0.00,,,0.00,785.000000,,2013-03-25 23:12:00,
2013-03-25 17:43:00,30.0,15.0,-100.00,ESE,102,5.0,11.0,54,0.00,,,0.00,593.000000,,2013-03-25 23:43:00,
2013-03-25 17:53:00,30.0,15.0,-100.00,ESE,102,5.0,11.0,54,0.00,,,0.00,593.000000,,2013-03-25 23:53:00,
2013-03-25 18:02:00,30.0,15.0,-100.00,ESE,102,5.0,11.0,54,0.00,,,0.00,593.000000,,2013-03-26 00:02:00,
2013-03-25 18:12:00,30.0,15.0,-100.00,ESE,102,5.0,11.0,54,0.00,,,0.00,593.000000,,2013-03-26 00:12:00,
2013-03-25 19:33:00,23.0,14.0,-100.00,SE,126,3.0,7.0,68,-99.99,,,0.00,71.000000,,2013-03-26 01:33:00,
2013-03-25 19:42:00,23.0,14.0,-100.00,SE,126,3.0,7.0,68,-99.99,,,0.00,71.000000,,2013-03-26 01:42:00,
2013-03-25 19:52:00,23.0,14.0,-100.00,SE,126,3.0,7.0,68,-99.99,,,0.00,71.000000,,2013-03-26 01:52:00,
2013-03-25 20:02:00,23.0,14.0,-100.00,SE,126,3.0,7.0,68,-99.99,,,0.00,71.000000,,2013-03-26 02:02:00,
2013-03-25 20:12:00,23.0,14.0,-100.00,SE,126,3.0,7.0,68,-99.99,,,0.00,71.000000,,2013-03-26 02:12:00,
2013-03-25 20:43:00,20.0,13.0,-100.00,WNW,286,1.0,2.0,75,0.00,,,0.00,1.000000,,2013-03-26 02:43:00,
2013-03-25 20:52:00,20.0,13.0,-100.00,WNW,286,1.0,2.0,75,0.00,,,0.00,1.000000,,2013-03-26 02:52:00,
2013-03-25 21:02:00,20.0,13.0,-100.00,WNW,286,1.0,2.0,75,0.00,,,0.00,1.000000,,2013-03-26 03:02:00,
2013-03-25 21:12:00,20.0,13.0,-100.00,WNW,286,1.0,2.0,75,0.00,,,0.00,1.000000,,2013-03-26 03:12:00,
2013-03-25 21:34:00,19.0,13.0,-100.00,WSW,256,1.0,3.0,78,0.00,,,0.00,0.000000,,2013-03-26 03:34:00,
2013-03-25 21:43:00,19.0,13.0,-100.00,WSW,256,1.0,3.0,78,0.00,,,0.00,0.000000,,2013-03-26 03:43:00,
2013-03-25 21:53:00,19.0,13.0,-100.00,WSW,256,1.0,3.0,78,0.00,,,0.00,0.000000,,2013-03-26 03:53:00,
2013-03-25 22:03:00,19.0,13.0,-100.00,WSW,256,1.0,3.0,78,0.00,,,0.00,0.000000,,2013-03-26 04:03:00,
2013-03-25 22:12:00,19.0,13.0,-100.00,WSW,256,1.0,3.0,78,0.00,,,0.00,0.000000,,2013-03-26 04:12:00,
2013-03-25 22:33:00,18.0,13.0,-100.00,West,269,2.0,2.0,79,0.00,,,0.00,0.000000,,2013-03-26 04:33:00,
2013-03-25 22:43:00,18.0,13.0,-100.00,West,269,2.0,2.0,79,0.00,,,0.00,0.000000,,2013-03-26 04:43:00,
2013-03-25 22:53:00,18.0,13.0,-100.00,West,269,2.0,2.0,79,0.00,,,0.00,0.000000,,2013-03-26 04:53:00,
2013-03-25 23:02:00,18.0,13.0,-100.00,West,269,2.0,2.0,79,0.00,,,0.00,0.000000,,2013-03-26 05:02:00,
2013-03-25 23:12:00,18.0,13.0,-100.00,West,269,2.0,2.0,79,0.00,,,0.00,0.000000,,2013-03-26 05:12:00,
2013-03-25 23:42:00,18.0,12.0,-100.00,WSW,238,2.0,3.0,76,0.00,,,0.00,0.000000,,2013-03-26 05:42:00,
2013-03-25 23:52:00,18.0,12.0,-100.00,WSW,238,2.0,3.0,76,0.00,,,0.00,0.000000,,2013-03-26 05:52:00,